Location: Eastlake (historical)
(39.0077°N, 122.6678°W)
Time: 16:52:09
(UTC+00:00)

NOSS 3-4 (A) - Pass Details

Date: 25 November 2020
Orbit: 879 x 1333 km, 63.4° (Epoch: 21 January)

Event Time Altitude Azimuth Distance (km) Brightness Sun altitude
Exits shadow 13:59:11 - 240° (WSW) 2,994 5.7 -12.7°
Reaches altitude 10° 14:00:30 10° 245° (WSW) 2,538 5.2 -12.5°
Maximum altitude 14:05:54 38° 313° (NW) 1,361 3.8 -11.5°
Drops below altitude 10° 14:11:40 10° 21° (NNE) 2,700 5.9 -10.4°
Sets 14:14:33 0° 29° (NNE) 3,713 6.7 -9.9°
